Погода в Изюме

Погода в Изюме : погода сейчас, прогноз погоды и архив. Всё, что Вы хотите узнать о погоде в Изюме!

Хотите узнать прогноз погоды в Изюме? Тогда Вам сюда: Погода в Изюме

Поиск расширенной информации на нашем сайте:

Другие новости

Новости СМИ2

Главная страница сайта

Новости сайта

03.07.2017

Напоминаем, что на нашем специализированном сайте Метеоцентр.Азия вы можете получить высокодетализированные автоматические прогнозы погоды по пунктам России, СНГ и мира в авиационном формате (включающие направление и скорость ветра, видимость, явления погоды, количество и форму облачности, нижнюю и верхнюю границу облачности).


Погода в Изюме - сегодня

Время (UTC), дата Ветер
(°,м/с) 
Видим.   Явления Облачность Т
(°С)
Тd
(°С)
f(%) Тe
(°С)
Pmin
(гПа)
dP
(гПа)
Po
(мм)
O2
(г/м3)
Тmin Tmax R s Состояние
почвы
12 15.06.18 050 (СВ) 20000 м    4/4 1000 м 
[Cu hum]
+31.7 +15.4 37 +41  1008.2  -0.6  750  267           
15 15.06.18 070 (В) 20000 м    6/0 верхняя 
[Ci fib]
+31 +12.9 33 +36  1008.2  -0.1  750  269           
18 15.06.18 090 (В) 20000 м    6/3 1000 м средняя 
[Sc|Ac trans]
+25.9 +15.2 52 +35  1009.4  1.1  750  273    +32.4       
21 15.06.18 тихо ()   10 км    ясно 
+22.3 +14.7 62 +30  1010.7  1.2  751  277           
00 16.06.18 тихо ()   10 км    ясно 
+18.9 +14.4 75 +27  1011.1  0.2  751  280           
03 16.06.18 090 (В) 20000 м    8/4 1000 м средняя, верхняя 
[Sc|Ac cast|Ci fib]
+17.9 +12.7 72 +24  1011.8  0.7  752  282           
06 16.06.18 070 (В) 20000 м    4/0 средняя, верхняя 
[Ac trans|Ci fib]
+23.3 +13.3 53 +29  1012.2  0.6  752  277  +17  +3.4       
09 16.06.18 070 (В) 20000 м    4/0 средняя, верхняя 
[Ac trans|Ci fib]
+27.7 +13.5 42 +34  1012.1  752  273           
12 16.06.18 110 (В) 20000 м    3/0 средняя 
[Ac trans]
+31.2 +12.9 33 +36  1011.5  -0.5  752  270           
15 16.06.18 090 (В) 20000 м    ясно 
+31 +13.8 35 +38  1011  -0.5  752  269           
18 16.06.18 090 (В) 20000 м    ясно 
+26.3 +12.1 41 +30  1012  0.9  752  274    +32       
21 16.06.18 110 (В) 10 км    ясно 
+21.7 +11.7 53 +25  1013.2  753  279           
00 17.06.18 110 (В) 10 км    ясно 
+19.7 +10 53 +22  1014  0.7  754  281           
03 17.06.18 110 (В) 20000 м    ясно 
+19 +7.6 48 +20  1014.5  0.5  754  283           
06 17.06.18 140 (ЮВ) 20000 м    3/0 верхняя 
[Ci fib]
+23.3 +6 33 +23  1014.8  0.4  754  279  +18  +3.4       
09 17.06.18 110 (В) 20000 м    3/0 верхняя 
[Ci fib]
+26.9 +5 25 +27  1014.7  754  276           
12 17.06.18 050 (СВ) 20000 м    3/0 верхняя 
[Ci fib]
+27.4 +7.1 28 +27  1013.7  -0.9  754  275           
15 17.06.18 070 (В) 20000 м    3/0 верхняя 
[Ci fib]
+27 +3.9 23 +27  1012.8  -0.9  753  276           
18 17.06.18 090 (В) 20000 м    3/0 верхняя 
[Ci fib]
+22.7 +6.2 34 +23  1013.8  0.8  754  279    +28.2       
21 17.06.18 тихо ()   10 км    ясно 
+16.6 +8.1 57 +17  1014.1  0.1  754  285           
00 18.06.18 340 (С) 10 км    ясно 
+14.2 +7.7 65 +15  1014.3  0.2  754  287           
03 18.06.18 340 (С) 20000 м    ясно 
+14.4 +8.2 66 +16  1014.4  0.1  754  287           
06 18.06.18 070 (В) 20000 м    ясно 
+22.6 +7.9 39 +23  1013.9  -0.3  754  279  +12  +3.6       
09 18.06.18 090 (В) 20000 м    ясно 
+27.8 +3.7 21 +28  1013.2  -0.5  753  275           
12 18.06.18 050 (СВ) 20000 м    ясно 
+28.9 +2.8 19 +29  1012.8  -0.4  753  274           
Время (UTC), дата Ветер
(°,м/с) 
Видим.   Явления Облачность Т
(°С)
Тd
(°С)
f(%) Тe
(°С)
Pmin
(гПа)
dP
(гПа)
Po
(мм)
O2
(г/м3)
Тmin Tmax R s Состояние
почвы

Для получения пояснительной информации подведите курсор к названию столбца.

ПОГОДА в Изюме - архив

Всё, что Вы хотите узнать о погоде в Изюме - удобно и подробно!

Выберите нужную дату (начиная с 1 января 2015* года) и нажмите кнопку "Найти".
Будут отображены архивные сводки погоды по пункту Изюм, начиная с указанной даты.


Отображать данные в формате CSV (для использования в таблицах Excel)


Внимание! Наш архив погоды предназначен исключительно для личного некоммерческого использования в познавательных целях. Если Вам необходимы официальные справки о состоянии погоды (для производственных, юридических, коммерческих и т.п. целей), обращайтесь в органы Росгидромета.

*Примечание: данная дата относится к архиву по метеостанциям СССР (Россия, СНГ, Балтия).
Архив по метеостанциям Зарубежной Европы и Азии (кроме Китая) хранится 10 дней, по другим регионам земного шара (Китай, Африка, Америка, Австралия, Океания) - 1 день.

Изюм - район местоположения метеостанции


Название, широта, долгота, высота метеостанции:
Изюм 49.2°ш. 37.3°д. 78 м над ур. моря [Украина]

Дополнительная информация

В oтличие oт бoльшинства пoгoдных сайтoв мы публикуем пoдрoбную метеoинфoрмацию в детальнoм прoфессиoнальнoм фoрмате.

Характеристики температуры и влажнoсти вoздуха измеряются на высoте 2 м в тени вдали oт зданий и деревьев.
Скoрoсть ветра измеряется на высoте 10 м (на урoвне рoста челoвека скoрoсть ветра ниже в 1.5-2 раза). Если метеoстанция нахoдится в гoрoде или в лесу, тo скoрoсть ветра занижена на 2-4 м/с пo сравнению с oткрытым местoм. Скoрoсть ветра над акватoриями крупных рек и oзёр, а также на вершинах хoлмoв на 2-5 м/с выше, чем в oбычных услoвиях.
Атмoсфернoе давление в разных тoчках местнoсти мoжет значительнo oтличаться oт давления на метеoстанции, в зависимoсти oт услoвий рельефа (при пoдъёме на 10 м давление пoнижается примернo на 1 мм рт.ст.).